User: anonymous   Login
Location: Penticton
(49.5000°N, 119.5830°W)
Time: 08:27:37
(UTC-08:00)
Language:

NOSS 3-4 (A) - Orbit

View from above orbital plane
View from above orbital plane
View from above satellite
View from above satellite

Ground track
Ground track

The orbit data is extracted from the following two-line orbital elements,

1 31701U 07027A   14316.08160178 0.00000000  00000-0  00000-0 0    07
2 31701  63.4030 339.5732 0114000  35.7046 324.2954 13.40659371    01
Epoch (UTC): 12 November 2014 01:57:30
Eccentricity: 0.0114000
inclination: 63.4030°
perigee height: 1021 km
apogee height: 1192 km
right ascension of ascending node: 339.5732°
argument of perigee: 35.7046°
revolutions per day: 13.40659371
mean anomaly at epoch: 324.2954°
orbit number at epoch: 0

The dashed part of the orbit path shows where the satellite is in the earth's shadow,  

DLR